Showing default

SHIYAN 27C, 63601

Orbit data source: Space-Track

SHIYAN 27C, 63601 is a payload satellite owned by CAST (CN) in SSO that was launched on Fri, 18 Apr 2025 UTC via a CHANG ZHENG 6A launch vehicle from the Taiyaun Space Center, China (TSC). Payload-class satellites include a variety of spacecraft equipped with specific instruments for various scientific and technological missions. These include communications satellites like Starlink; space stations such as the ISS; scientific satellites like the Hubble; Earth observation satellites from companies like Planet Labs, Umbra, and HawkEye 360; GPS; miniature CubeSats for education and research; and military/defense satellites.

Loading next visibility...
Identifier
63601, 2025-078C
Orbit
SSO
Last TLE update
16 hours ago
Origin
Manufacturer
CAST
Mission
Operational Defense Radar Imaging
Bus & Motor
SW27, Unknown motor
Mass
300 kg wet, ~300 kg dry
Launch date (UTC)
2025-04-18 (3 months ago)
Launch vehicle
CHANG ZHENG 6A
Launch site
Taiyaun Space Center, China (TSC)
Object type
Payload
Rocket body
Debris
Shape & HBR
Box + 1 Pan, 10 m
Radar Cross Section
13.200 m², Large (>1 m²)

Expand to show TLE details & history

TLE from 16 hours ago
0 SHIYAN 27C
1 63601U 25078C   25191.77433484  .00000000  00000-0  61331-4 0  9994
2 63601  99.6914 199.1640 0001155  92.1354 267.9917 13.57206485 11220
Epoch: 2025-07-10T18:35Z
TLE epoch observation values (Epoch: 2025-07-10T18:35:02.53Z)
Latitude
0.00004°
Longitude
-8.53234°
Altitude
1,048.688 km
Speed
7.328 km/s
True Right ascension
13h 16m 39s
True Declination
0° 00' 00"
Sunlit
Object was in daylight at epoch
Visualization orbit readout
Latitude
76.19342°
Longitude
-51.6012°
Altitude
1,057.918 km
Speed
7.33 km/s
Apparent Right ascension
10h 59m 18s
Apparent Declination
25° 11' 38"
Sunlit
Object is in daylight
Visualization observer readout
Local Sidereal Time
23:11:57
Azimuth
3.151° NNE
Elevation
-24.823°
Doppler factor
1
Orbital elements
Apogee altitude
1,044.01 km
Perigee altitude
1,042.296 km
Semi-major axis
7,421.29 km
Eccentricity
0.00012
Inclination
99.6914°
RAAN
199.164°
Arg. of periapsis
92.1354°
True anomaly
Unknown
Mean anomaly
267.9917°
Eccentric anomaly
Unknown
Mean motion
3.39488 °/min
Orbital period
106.04 mins
BSTAR
0.000061331
Loading maneuver chart data...
Loading SW <> Apogee altitude chart data...
Loading historical data...
Loading historical data...
Loading historical data...
Loading historical data...
Loading historical data...
Loading historical data...
Loading historical data...

SHIYAN 27C Visibility forecast

Observer location: undefined°, undefined°

Span
Click to sort rows by Start time (UTC) header in descending order
Start Az.
Max El. time (UTC)
Max El. Az.
Max El.
End time (UTC)
End Az.
12 mins2025-07-11 12:51:59.971Z26.352° NE2025-07-11 12:57:59.971Z96.896° ESE36.772°2025-07-11 13:03:59.971Z173.031° S
8 mins2025-07-11 14:38:59.971Z340.667° N2025-07-11 14:41:59.971Z303.451° NW25.467°2025-07-11 14:46:59.971Z244.717° WSW
8 mins2025-07-11 23:03:59.971Z98.108° ESE2025-07-11 23:06:59.971Z63.663° ENE21.375°2025-07-11 23:11:59.971Z11.865° NNE
11 mins2025-07-12 00:45:59.971Z179.835° S2025-07-12 00:50:59.971Z243.993° WSW41.138°2025-07-12 00:56:59.971Z336.88° NNW
|